H-2A DEB, 43068

Orbit data source: Space-Track

H-2A DEB, 43068 is space debris in SSO originally from a launch on Sat, 23 Dec 2017 UTC launched from the Tanegashima Space Center (TNSTA). Debris objects in space refer to the collection of defunct objects orbiting the Earth. Examples of debris include non-operational satellites, rocket bodies, and fragments generated from explosions, collisions, or faulty payload assembly.

Loading next visibility...
Identifier
43068, 2017-082D
Orbit
SSO
Country
Flag of JPJP / JPN
Related business
Manufacturer
MELCO
Mission
Spacecraft
Bus & Motor
Unknown
Mass
~50 kg wet, ~50 kg dry
Launch date (UTC)
2017-12-23 (8 years ago)
Launch vehicle
Unknown
Launch site
Tanegashima Space Center (TNSTA)
Object type
Payload
Rocket body
Debris
Shape & HBR
Trunc Cone, 0.5 m
Radar Cross Section
0.533 m², Large (>1 m²)

Expand to show TLE details & history
Last TLE update: 1 day ago

TLE from 1 day ago
0 H-2A DEB
1 43068U 17082D   25306.43191189  .00118964  00000-0  12677-2 0  9995
2 43068  98.0045 102.7976 0053865 352.1362   7.9043 15.61746389428355
Epoch: 2025-11-02T10:21Z
TLE epoch observation values (Epoch: 2025-11-02T10:21:57.187Z)
Latitude
-0.00004°
Longitude
-94.6384°
Altitude
349.666 km
Speed
7.72 km/s
True Right ascension
06h 51m 11s
True Declination
0° 00' 00"
Sunlit
Object was in full shadow at epoch
Visualization orbit readout
Latitude
Unknown
Longitude
Unknown
Altitude
Unknown
Speed
Unknown
Apparent Right ascension
Unknown
Apparent Declination
Unknown
Sunlit
N/A
Visualization observer readout
Local Sidereal Time
10:31:08
Azimuth
Unknown
Elevation
Unknown
Doppler factor
Unknown
Orbital elements
Apogee altitude
415.95 km
Perigee altitude
343.149 km
Semi-major axis
6,757.687 km
Eccentricity
0.00539
Inclination
98.0045°
RAAN
102.7976°
Arg. of periapsis
352.1362°
True anomaly
7.98975°
Mean anomaly
7.9043°
Eccentric anomaly
7.94697°
Mean motion
3.90702 °/min
Orbital period
92.14 mins
BSTAR
0.0012677
Loading maneuver chart data...
Computing Atmospheric mass density...
Loading historical data...
Loading historical data...
Loading historical data...
Loading historical data...
Loading historical data...
Loading historical data...
Loading historical data...
Other satellites on launch #82 in the year 2017 (2017-12-23 UTC)

Documentation

Showing up to 5 results
|